Hourly Data Report for October 11, 2014

All times are specified in Local Standard Time (LST). Add 1 hour to adjust for Daylight Saving Time where and when it is observed.

PENTICTON A
BRITISH COLUMBIA

49°27'45.000" N
119°36'08.000" W
344.40 m
1126146
71889
YYF

Download Data

Hourly Data (October 2014)
Hourly Data Report for October 11, 2014
Temp Definition
°C
Dew Point Temp Definition
°C
Rel Hum Definition
%
Wind Dir Definition
10's deg

Wind Spd Definition
km/h
Visibility Definition
km
Stn Press Definition
kPa
Hmdx Definition


Wind Chill Definition


Weather Definition


TIME
00:00 Legend Double Dagger 13.9 7.9 67 7 8 24.1 97.13     LegendNANA
01:00 Legend Double Dagger 12.9 7.0 67 31 7 24.1 97.13     Mostly Cloudy
02:00 Legend Double Dagger 13.1 5.1 58 33 9 24.1 97.17     LegendNANA
03:00 Legend Double Dagger 15.9 7.5 57 31 6 24.1 97.16     LegendNANA
04:00 Legend Double Dagger 10.8 6.6 75 6 8 24.1 97.15     Mainly Clear
05:00 Legend Double Dagger 11.1 6.7 74 19 15 24.1 97.11     LegendNANA
06:00 Legend Double Dagger 12.5 6.6 67 27 4 24.1 97.10     LegendNANA
07:00 Legend Double Dagger 11.2 5.8 69 31 9 24.1 97.12     Mainly Clear
08:00 Legend Double Dagger 14.6 8.2 65 21 4 24.1 97.12     LegendNANA
09:00 Legend Double Dagger 15.6 7.9 60 5 8 24.1 97.12     LegendNANA
10:00 Legend Double Dagger 15.8 7.9 59 5 6 24.1 97.08     Mostly Cloudy
11:00 Legend Double Dagger 15.8 8.1 60 7 4 24.1 97.09     LegendNANA
12:00 Legend Double Dagger 16.5 6.7 52 35 7 24.1 97.05     LegendNANA
13:00 Legend Double Dagger 16.8 4.3 43 31 10 24.1 97.12     Mostly Cloudy
14:00 Legend Double Dagger 15.8 6.3 53 4 10 24.1 97.10     LegendNANA
15:00 Legend Double Dagger 16.1 5.8 50 36 5 24.1 97.09     LegendNANA
16:00 Legend Double Dagger 17.6 5.0 43 30 7 24.1 97.11     Mostly Cloudy
17:00 Legend Double Dagger 14.8 5.1 52 36 1 24.1 97.16     LegendNANA
18:00 Legend Double Dagger 14.6 4.1 49 19 3 24.1 97.24     LegendNANA
19:00 Legend Double Dagger 14.2 5.1 54 10 5 24.1 97.31     Mostly Cloudy
20:00 Legend Double Dagger 12.4 3.4 54 36 1 24.1 97.34     LegendNANA
21:00 Legend Double Dagger 12.5 4.0 56 15 7 24.1 97.43     LegendNANA
22:00 Legend Double Dagger 13.1 3.5 52 18 3 24.1 97.51     Mainly Clear
23:00 Legend Double Dagger 10.9 4.2 63 28 6 24.1 97.58     LegendNANA

Notes on Data Quality.

Legend

  • E = Estimated
  • M = Missing
  • NA = Not Available
  • ‡ = Partner data that is not subject to review by the National Climate Archives
Date modified: